Year,Month,Day,Hour,Minute,Value (Times are PST for temperature in C)
2010,06,28,00,00,11.20
2010,06,28,00,01,11.30
2010,06,28,00,02,11.30
2010,06,28,00,03,11.30
2010,06,28,00,04,11.40
2010,06,28,00,05,11.40
2010,06,28,00,06,11.50
2010,06,28,00,07,11.50
2010,06,28,00,08,11.60
2010,06,28,00,09,11.60
2010,06,28,00,10,11.60
2010,06,28,00,11,11.60
2010,06,28,00,12,11.70
2010,06,28,00,13,11.70
2010,06,28,00,14,11.70
2010,06,28,00,15,11.70
2010,06,28,00,16,11.70
2010,06,28,00,17,11.70
2010,06,28,00,18,11.70
2010,06,28,00,19,11.70
2010,06,28,00,20,11.70
2010,06,28,00,21,11.70
2010,06,28,00,22,11.70
2010,06,28,00,23,11.70
2010,06,28,00,24,11.70
2010,06,28,00,25,11.70
2010,06,28,00,26,11.70
2010,06,28,00,27,11.70
2010,06,28,00,28,11.60
2010,06,28,00,29,11.60
2010,06,28,00,30,11.60
2010,06,28,00,31,11.60
2010,06,28,00,32,11.60
2010,06,28,00,33,11.60
2010,06,28,00,34,11.60
2010,06,28,00,35,11.60
2010,06,28,00,36,11.60
2010,06,28,00,37,11.60
2010,06,28,00,38,11.60
2010,06,28,00,39,11.60
2010,06,28,00,40,11.50
2010,06,28,00,41,11.50
2010,06,28,00,42,11.40
2010,06,28,00,43,11.40
2010,06,28,00,44,11.30
2010,06,28,00,45,11.30
2010,06,28,00,46,11.20
2010,06,28,00,47,11.10
2010,06,28,00,48,11.10
2010,06,28,00,49,11.00
2010,06,28,00,50,10.90
2010,06,28,00,51,10.90
2010,06,28,00,52,10.80
2010,06,28,00,53,10.70
2010,06,28,00,54,10.70
2010,06,28,00,55,10.60
2010,06,28,00,56,10.60
2010,06,28,00,57,10.50
2010,06,28,00,58,10.50
2010,06,28,00,59,10.40
2010,06,28,01,00,10.40
2010,06,28,01,01,10.30
2010,06,28,01,02,10.30
2010,06,28,01,03,10.20
2010,06,28,01,04,10.20
2010,06,28,01,05,10.10
2010,06,28,01,06,10.10
2010,06,28,01,07,10.00
2010,06,28,01,08,10.00
2010,06,28,01,09,9.90
2010,06,28,01,10,9.90
2010,06,28,01,11,9.80
2010,06,28,01,12,9.80
2010,06,28,01,13,9.80
2010,06,28,01,14,9.70
2010,06,28,01,15,9.70
2010,06,28,01,16,9.70
2010,06,28,01,17,9.60
2010,06,28,01,18,9.60
2010,06,28,01,19,9.60
2010,06,28,01,20,9.50
2010,06,28,01,21,9.50
2010,06,28,01,22,9.40
2010,06,28,01,23,9.40
2010,06,28,01,24,9.30
2010,06,28,01,25,9.30
2010,06,28,01,26,9.20
2010,06,28,01,27,9.20
2010,06,28,01,28,9.20
2010,06,28,01,29,9.10
2010,06,28,01,30,9.10
2010,06,28,01,31,9.10
2010,06,28,01,32,9.10
2010,06,28,01,33,9.10
2010,06,28,01,34,9.10
2010,06,28,01,35,9.00
2010,06,28,01,36,9.00
2010,06,28,01,37,9.00
2010,06,28,01,38,8.90
2010,06,28,01,39,8.90
2010,06,28,01,40,8.90
2010,06,28,01,41,8.90
2010,06,28,01,42,8.90
2010,06,28,01,43,8.80
2010,06,28,01,44,8.80
2010,06,28,01,45,8.80
2010,06,28,01,46,8.80
2010,06,28,01,47,8.80
2010,06,28,01,48,8.70
2010,06,28,01,49,8.70
2010,06,28,01,50,8.70
2010,06,28,01,51,8.70
2010,06,28,01,52,8.70
2010,06,28,01,53,8.70
2010,06,28,01,54,8.80
2010,06,28,01,55,8.70
2010,06,28,01,56,8.70
2010,06,28,01,57,8.70
2010,06,28,01,58,8.70
2010,06,28,01,59,8.70
2010,06,28,02,00,8.70
2010,06,28,02,01,8.70
2010,06,28,02,02,8.70
2010,06,28,02,03,8.70
2010,06,28,02,04,8.70
2010,06,28,02,05,8.60
2010,06,28,02,06,8.60
2010,06,28,02,07,8.60
2010,06,28,02,08,8.60
2010,06,28,02,09,8.70
2010,06,28,02,10,8.70
2010,06,28,02,11,8.70
2010,06,28,02,12,8.70
2010,06,28,02,13,8.70
2010,06,28,02,14,8.70
2010,06,28,02,15,8.70
2010,06,28,02,16,8.70
2010,06,28,02,17,8.70
2010,06,28,02,18,8.70
2010,06,28,02,19,8.70
2010,06,28,02,20,8.70
2010,06,28,02,21,8.70
2010,06,28,02,22,8.70
2010,06,28,02,23,8.70
2010,06,28,02,24,8.70
2010,06,28,02,25,8.70
2010,06,28,02,26,8.70
2010,06,28,02,27,8.70
2010,06,28,02,28,8.70
2010,06,28,02,29,8.70
2010,06,28,02,30,8.70
2010,06,28,02,31,8.70
2010,06,28,02,32,8.70
2010,06,28,02,33,8.80
2010,06,28,02,34,8.80
2010,06,28,02,35,8.80
2010,06,28,02,36,8.80
2010,06,28,02,37,8.80
2010,06,28,02,38,8.80
2010,06,28,02,39,8.90
2010,06,28,02,40,8.90
2010,06,28,02,41,8.90
2010,06,28,02,42,8.90
2010,06,28,02,43,8.90
2010,06,28,02,44,8.90
2010,06,28,02,45,8.90
2010,06,28,02,46,8.90
2010,06,28,02,47,8.90
2010,06,28,02,48,8.90
2010,06,28,02,49,8.90
2010,06,28,02,50,8.80
2010,06,28,02,51,8.80
2010,06,28,02,52,8.80
2010,06,28,02,53,8.80
2010,06,28,02,54,8.80
2010,06,28,02,55,8.70
2010,06,28,02,56,8.70
2010,06,28,02,57,8.70
2010,06,28,02,58,8.70
2010,06,28,02,59,8.70
2010,06,28,03,00,8.80
2010,06,28,03,01,8.80
2010,06,28,03,02,8.80
2010,06,28,03,03,8.70
2010,06,28,03,04,8.80
2010,06,28,03,05,8.70
2010,06,28,03,06,8.70
2010,06,28,03,07,8.70
2010,06,28,03,08,8.70
2010,06,28,03,09,8.60
2010,06,28,03,10,8.60
2010,06,28,03,11,8.60
2010,06,28,03,12,8.50
2010,06,28,03,13,8.40
2010,06,28,03,14,8.40
2010,06,28,03,15,8.30
2010,06,28,03,16,8.30
2010,06,28,03,17,8.30
2010,06,28,03,18,8.20
2010,06,28,03,19,8.20
2010,06,28,03,20,8.20
2010,06,28,03,21,8.20
2010,06,28,03,22,8.20
2010,06,28,03,23,8.30
2010,06,28,03,24,8.30
2010,06,28,03,25,8.30
2010,06,28,03,26,8.30
2010,06,28,03,27,8.30
2010,06,28,03,28,8.30
2010,06,28,03,29,8.30
2010,06,28,03,30,8.40
2010,06,28,03,31,8.40
2010,06,28,03,32,8.40
2010,06,28,03,33,8.40
2010,06,28,03,34,8.50
2010,06,28,03,35,8.50
2010,06,28,03,36,8.50
2010,06,28,03,37,8.60
2010,06,28,03,38,8.60
2010,06,28,03,39,8.60
2010,06,28,03,40,8.60
2010,06,28,03,41,8.60
2010,06,28,03,42,8.60
2010,06,28,03,43,8.50
2010,06,28,03,44,8.50
2010,06,28,03,45,8.50
2010,06,28,03,46,8.50
2010,06,28,03,47,8.40
2010,06,28,03,48,8.40
2010,06,28,03,49,8.40
2010,06,28,03,50,8.40
2010,06,28,03,51,8.40
2010,06,28,03,52,8.40
2010,06,28,03,53,8.50
2010,06,28,03,54,8.50
2010,06,28,03,55,8.60
2010,06,28,03,56,8.60
2010,06,28,03,57,8.60
2010,06,28,03,58,8.70
2010,06,28,03,59,8.70
2010,06,28,04,00,8.70
2010,06,28,04,01,8.70
2010,06,28,04,02,8.80
2010,06,28,04,03,8.80
2010,06,28,04,04,8.80
2010,06,28,04,05,8.80
2010,06,28,04,06,8.80
2010,06,28,04,07,8.80
2010,06,28,04,08,8.80
2010,06,28,04,09,8.80
2010,06,28,04,10,8.80
2010,06,28,04,11,8.80
2010,06,28,04,12,8.80
2010,06,28,04,13,8.80
2010,06,28,04,14,8.90
2010,06,28,04,15,8.90
2010,06,28,04,16,8.90
2010,06,28,04,17,8.90
2010,06,28,04,18,8.90
2010,06,28,04,19,8.90
2010,06,28,04,20,9.00
2010,06,28,04,21,9.00
2010,06,28,04,22,9.00
2010,06,28,04,23,9.10
2010,06,28,04,24,9.10
2010,06,28,04,25,9.10
2010,06,28,04,26,9.10
2010,06,28,04,27,9.10
2010,06,28,04,28,9.20
2010,06,28,04,29,9.20
2010,06,28,04,30,9.20
2010,06,28,04,31,9.20
2010,06,28,04,32,9.30
2010,06,28,04,33,9.30
2010,06,28,04,34,9.30
2010,06,28,04,35,9.30
2010,06,28,04,36,9.40
2010,06,28,04,37,9.40
2010,06,28,04,38,9.40
2010,06,28,04,39,9.40
2010,06,28,04,40,9.40
2010,06,28,04,41,9.50
2010,06,28,04,42,9.50
2010,06,28,04,43,9.60
2010,06,28,04,44,9.60
2010,06,28,04,45,9.60
2010,06,28,04,46,9.60
2010,06,28,04,47,9.60
2010,06,28,04,48,9.60
2010,06,28,04,49,9.70
2010,06,28,04,50,9.70
2010,06,28,04,51,9.70
2010,06,28,04,52,9.70
2010,06,28,04,53,9.70
2010,06,28,04,54,9.80
2010,06,28,04,55,9.80
2010,06,28,04,56,9.80
2010,06,28,04,57,9.80
2010,06,28,04,58,9.80
2010,06,28,04,59,9.80
2010,06,28,05,00,9.80
2010,06,28,05,01,9.80
2010,06,28,05,02,9.80
2010,06,28,05,03,9.80
2010,06,28,05,04,9.80
2010,06,28,05,05,9.80
2010,06,28,05,06,9.80
2010,06,28,05,07,9.90
2010,06,28,05,08,9.90
2010,06,28,05,09,9.90
2010,06,28,05,10,9.90
2010,06,28,05,11,9.90
2010,06,28,05,12,9.90
2010,06,28,05,13,9.90
2010,06,28,05,14,9.90
2010,06,28,05,15,9.90
2010,06,28,05,16,9.90
2010,06,28,05,17,9.90
2010,06,28,05,18,9.90
2010,06,28,05,19,9.90
2010,06,28,05,20,9.90
2010,06,28,05,21,9.90
2010,06,28,05,22,9.90
2010,06,28,05,23,9.90
2010,06,28,05,24,9.90
2010,06,28,05,25,9.90
2010,06,28,05,26,9.90
2010,06,28,05,27,9.90
2010,06,28,05,28,9.90
2010,06,28,05,29,9.90
2010,06,28,05,30,9.90
2010,06,28,05,31,9.90
2010,06,28,05,32,9.90
2010,06,28,05,33,9.90
2010,06,28,05,34,9.90
2010,06,28,05,35,9.90
2010,06,28,05,36,9.90
2010,06,28,05,37,9.90
2010,06,28,05,38,9.90
2010,06,28,05,39,9.90
2010,06,28,05,40,9.90
2010,06,28,05,41,10.00
2010,06,28,05,42,10.00
2010,06,28,05,43,10.00
2010,06,28,05,44,10.10
2010,06,28,05,45,10.10
2010,06,28,05,46,10.10
2010,06,28,05,47,10.10
2010,06,28,05,48,10.10
2010,06,28,05,49,10.10
2010,06,28,05,50,10.20
2010,06,28,05,51,10.20
2010,06,28,05,52,10.20
2010,06,28,05,53,10.20
2010,06,28,05,54,10.20
2010,06,28,05,55,10.20
2010,06,28,05,56,10.20
2010,06,28,05,57,10.20
2010,06,28,05,58,10.30
2010,06,28,05,59,10.30
2010,06,28,06,00,10.30
2010,06,28,06,01,10.30
2010,06,28,06,02,10.30
2010,06,28,06,03,10.30
2010,06,28,06,04,10.30
2010,06,28,06,05,10.30
2010,06,28,06,06,10.30
2010,06,28,06,07,10.30
2010,06,28,06,08,10.30
2010,06,28,06,09,10.30
2010,06,28,06,10,10.30
2010,06,28,06,11,10.30
2010,06,28,06,12,10.40
2010,06,28,06,13,10.40
2010,06,28,06,14,10.40
2010,06,28,06,15,10.40
2010,06,28,06,16,10.40
2010,06,28,06,17,10.40
2010,06,28,06,18,10.50
2010,06,28,06,19,10.50
2010,06,28,06,20,10.50
2010,06,28,06,21,10.50
2010,06,28,06,22,10.50
2010,06,28,06,23,10.50
2010,06,28,06,24,10.60
2010,06,28,06,25,10.60
2010,06,28,06,26,10.60
2010,06,28,06,27,10.60
2010,06,28,06,28,10.60
2010,06,28,06,29,10.70
2010,06,28,06,30,10.70
2010,06,28,06,31,10.70
2010,06,28,06,32,10.70
2010,06,28,06,33,10.70
2010,06,28,06,34,10.80
2010,06,28,06,35,10.80
2010,06,28,06,36,10.80
2010,06,28,06,37,10.80
2010,06,28,06,38,10.80
2010,06,28,06,39,10.90
2010,06,28,06,40,10.90
2010,06,28,06,41,10.90
2010,06,28,06,42,10.90
2010,06,28,06,43,11.00
2010,06,28,06,44,11.00
2010,06,28,06,45,11.00
2010,06,28,06,46,11.00
2010,06,28,06,47,11.00
2010,06,28,06,48,11.00
2010,06,28,06,49,11.10
2010,06,28,06,50,11.10
2010,06,28,06,51,11.10
2010,06,28,06,52,11.10
2010,06,28,06,53,11.10
2010,06,28,06,54,11.10
2010,06,28,06,55,11.20
2010,06,28,06,56,11.20
2010,06,28,06,57,11.20
2010,06,28,06,58,11.20
2010,06,28,06,59,11.30
2010,06,28,07,00,11.30
2010,06,28,07,01,11.30
2010,06,28,07,02,11.30
2010,06,28,07,03,11.40
2010,06,28,07,04,11.40
2010,06,28,07,05,11.40
2010,06,28,07,06,11.40
2010,06,28,07,07,11.50
2010,06,28,07,08,11.50
2010,06,28,07,09,11.60
2010,06,28,07,10,11.60
2010,06,28,07,11,11.60
2010,06,28,07,12,11.60
2010,06,28,07,13,11.60
2010,06,28,07,14,11.70
2010,06,28,07,15,11.70
2010,06,28,07,16,11.70
2010,06,28,07,17,11.70
2010,06,28,07,18,11.70
2010,06,28,07,19,11.70
2010,06,28,07,20,11.70
2010,06,28,07,21,11.80
2010,06,28,07,22,11.80
2010,06,28,07,23,11.80
2010,06,28,07,24,11.80
2010,06,28,07,25,11.80
2010,06,28,07,26,11.90
2010,06,28,07,27,11.90
2010,06,28,07,28,11.90
2010,06,28,07,29,11.90
2010,06,28,07,30,11.90
2010,06,28,07,31,12.00
2010,06,28,07,32,12.00
2010,06,28,07,33,12.10
2010,06,28,07,34,12.10
2010,06,28,07,35,12.10
2010,06,28,07,36,12.10
2010,06,28,07,37,12.10
2010,06,28,07,38,12.20
2010,06,28,07,39,12.20
2010,06,28,07,40,12.20
2010,06,28,07,41,12.20
2010,06,28,07,42,12.20
2010,06,28,07,43,12.20
2010,06,28,07,44,12.20
2010,06,28,07,45,12.20
2010,06,28,07,46,12.30
2010,06,28,07,47,12.30
2010,06,28,07,48,12.30
2010,06,28,07,49,12.30
2010,06,28,07,50,12.30
2010,06,28,07,51,12.30
2010,06,28,07,52,12.30
2010,06,28,07,53,12.40
2010,06,28,07,54,12.40
2010,06,28,07,55,12.40
2010,06,28,07,56,12.40
2010,06,28,07,57,12.40
2010,06,28,07,58,12.40
2010,06,28,07,59,12.30
2010,06,28,08,00,12.30
2010,06,28,08,01,12.30
2010,06,28,08,02,12.30
2010,06,28,08,03,12.30
2010,06,28,08,04,12.30
2010,06,28,08,05,12.20
2010,06,28,08,06,12.20
2010,06,28,08,07,12.20
2010,06,28,08,08,12.20
2010,06,28,08,09,12.10
2010,06,28,08,10,12.10
2010,06,28,08,11,12.10
2010,06,28,08,12,12.10
2010,06,28,08,13,12.10
2010,06,28,08,14,12.10
2010,06,28,08,15,12.10
2010,06,28,08,16,12.10
2010,06,28,08,17,12.10
2010,06,28,08,18,12.20
2010,06,28,08,19,12.20
2010,06,28,08,20,12.20
2010,06,28,08,21,12.20
2010,06,28,08,22,12.30
2010,06,28,08,23,12.30
2010,06,28,08,24,12.40
2010,06,28,08,25,12.40
2010,06,28,08,26,12.40
2010,06,28,08,27,12.50
2010,06,28,08,28,12.50
2010,06,28,08,29,12.60
2010,06,28,08,30,12.60
2010,06,28,08,31,12.60
2010,06,28,08,32,12.60
2010,06,28,08,33,12.70
2010,06,28,08,34,12.70
2010,06,28,08,35,12.80
2010,06,28,08,36,12.80
2010,06,28,08,37,12.90
2010,06,28,08,38,12.90
2010,06,28,08,39,13.00
2010,06,28,08,40,13.00
2010,06,28,08,41,13.00
2010,06,28,08,42,13.00
2010,06,28,08,43,13.00
2010,06,28,08,44,13.00
2010,06,28,08,45,13.10
2010,06,28,08,46,13.10
2010,06,28,08,47,13.20
2010,06,28,08,48,13.20
2010,06,28,08,49,13.30
2010,06,28,08,50,13.30
2010,06,28,08,51,13.40
2010,06,28,08,52,13.50
2010,06,28,08,53,13.50
2010,06,28,08,54,13.60
2010,06,28,08,55,13.70
2010,06,28,08,56,13.70
2010,06,28,08,57,13.80
2010,06,28,08,58,13.80
2010,06,28,08,59,13.90
2010,06,28,09,00,14.00
2010,06,28,09,01,14.00
2010,06,28,09,02,14.10
2010,06,28,09,03,14.10
2010,06,28,09,04,14.10
2010,06,28,09,05,14.10
2010,06,28,09,06,14.10
2010,06,28,09,07,14.10
2010,06,28,09,08,14.10
2010,06,28,09,09,14.10
2010,06,28,09,10,14.00
2010,06,28,09,11,14.00
2010,06,28,09,12,13.90
2010,06,28,09,13,13.90
2010,06,28,09,14,13.80
2010,06,28,09,15,13.80
2010,06,28,09,16,13.80
2010,06,28,09,17,13.90
2010,06,28,09,18,13.90
2010,06,28,09,19,13.90
2010,06,28,09,20,13.90
2010,06,28,09,21,13.90
2010,06,28,09,22,13.90
2010,06,28,09,23,13.90
2010,06,28,09,24,13.90
2010,06,28,09,25,13.90
2010,06,28,09,26,13.90
2010,06,28,09,27,13.90
2010,06,28,09,28,14.00
2010,06,28,09,29,14.00
2010,06,28,09,30,14.10
2010,06,28,09,31,14.10
2010,06,28,09,32,14.10
2010,06,28,09,33,14.20
2010,06,28,09,34,14.20
2010,06,28,09,35,14.20
2010,06,28,09,36,14.20
2010,06,28,09,37,14.20
2010,06,28,09,38,14.20
2010,06,28,09,39,14.20
2010,06,28,09,40,14.20
2010,06,28,09,41,14.20
2010,06,28,09,42,14.30
2010,06,28,09,43,14.30
2010,06,28,09,44,14.30
2010,06,28,09,45,14.40
2010,06,28,09,46,14.50
2010,06,28,09,47,14.60
2010,06,28,09,48,14.60
2010,06,28,09,49,14.70
2010,06,28,09,50,14.80
2010,06,28,09,51,15.00
2010,06,28,09,52,15.00
2010,06,28,09,53,15.00
2010,06,28,09,54,15.00
2010,06,28,09,55,15.10
2010,06,28,09,56,15.10
2010,06,28,09,57,15.10
2010,06,28,09,58,15.10
2010,06,28,09,59,15.00
2010,06,28,10,00,15.00
2010,06,28,10,01,15.00
2010,06,28,10,02,15.00
2010,06,28,10,03,15.00
2010,06,28,10,04,15.10
2010,06,28,10,05,15.20
2010,06,28,10,06,15.30
2010,06,28,10,07,15.30
2010,06,28,10,08,15.40
2010,06,28,10,09,15.50
2010,06,28,10,10,15.60
2010,06,28,10,11,15.70
2010,06,28,10,12,15.80
2010,06,28,10,13,15.90
2010,06,28,10,14,16.00
2010,06,28,10,15,16.00
2010,06,28,10,16,16.00
2010,06,28,10,17,16.00
2010,06,28,10,18,16.00
2010,06,28,10,19,15.90
2010,06,28,10,20,15.80
2010,06,28,10,21,15.70
2010,06,28,10,22,15.60
2010,06,28,10,23,15.50
2010,06,28,10,24,15.40
2010,06,28,10,25,15.50
2010,06,28,10,26,15.50
2010,06,28,10,27,15.40
2010,06,28,10,28,15.40
2010,06,28,10,29,15.30
2010,06,28,10,30,15.30
2010,06,28,10,31,15.30
2010,06,28,10,32,15.30
2010,06,28,10,33,15.30
2010,06,28,10,34,15.20
2010,06,28,10,35,15.20
2010,06,28,10,36,15.10
2010,06,28,10,37,15.10
2010,06,28,10,38,15.10
2010,06,28,10,39,15.20
2010,06,28,10,40,15.30
2010,06,28,10,41,15.30
2010,06,28,10,42,15.40
2010,06,28,10,43,15.50
2010,06,28,10,44,15.60
2010,06,28,10,45,15.60
2010,06,28,10,46,15.60
2010,06,28,10,47,15.50
2010,06,28,10,48,15.50
2010,06,28,10,49,15.40
2010,06,28,10,50,15.40
2010,06,28,10,51,15.30
2010,06,28,10,52,15.30
2010,06,28,10,53,15.20
2010,06,28,10,54,15.00
2010,06,28,10,55,15.10
2010,06,28,10,56,15.20
2010,06,28,10,57,15.30
2010,06,28,10,58,15.30
2010,06,28,10,59,15.40
2010,06,28,11,00,15.40
2010,06,28,11,01,15.30
2010,06,28,11,02,15.30
2010,06,28,11,03,15.20
2010,06,28,11,04,15.10
2010,06,28,11,05,15.00
2010,06,28,11,06,15.00
2010,06,28,11,07,15.00
2010,06,28,11,08,14.90
2010,06,28,11,09,14.90
2010,06,28,11,10,14.80
2010,06,28,11,11,14.80
2010,06,28,11,12,14.80
2010,06,28,11,13,15.00
2010,06,28,11,14,15.00
2010,06,28,11,15,15.00
2010,06,28,11,16,15.00
2010,06,28,11,17,15.00
2010,06,28,11,18,15.00
2010,06,28,11,19,15.00
2010,06,28,11,20,15.00
2010,06,28,11,21,15.00
2010,06,28,11,22,15.00
2010,06,28,11,23,15.00
2010,06,28,11,24,15.00
2010,06,28,11,25,15.00
2010,06,28,11,26,15.10
2010,06,28,11,27,15.20
2010,06,28,11,28,15.20
2010,06,28,11,29,15.30
2010,06,28,11,30,15.40
2010,06,28,11,31,15.50
2010,06,28,11,32,15.60
2010,06,28,11,33,15.80
2010,06,28,11,34,16.00
2010,06,28,11,35,16.20
2010,06,28,11,36,16.30
2010,06,28,11,37,16.40
2010,06,28,11,38,16.50
2010,06,28,11,39,16.60
2010,06,28,11,40,16.70
2010,06,28,11,41,16.70
2010,06,28,11,42,16.70
2010,06,28,11,43,16.60
2010,06,28,11,44,16.50
2010,06,28,11,45,16.40
2010,06,28,11,46,16.20
2010,06,28,11,47,16.10
2010,06,28,11,48,16.10
2010,06,28,11,49,16.10
2010,06,28,11,50,16.00
2010,06,28,11,51,15.90
2010,06,28,11,52,15.80
2010,06,28,11,53,15.60
2010,06,28,11,54,15.50
2010,06,28,11,55,15.50
2010,06,28,11,56,15.40
2010,06,28,11,57,15.40
2010,06,28,11,58,15.40
2010,06,28,11,59,15.30
2010,06,28,12,00,15.20
2010,06,28,12,01,15.20
2010,06,28,12,02,15.20
2010,06,28,12,03,15.20
2010,06,28,12,04,15.20
2010,06,28,12,05,15.20
2010,06,28,12,06,15.20
2010,06,28,12,07,15.30
2010,06,28,12,08,15.30
2010,06,28,12,09,15.30
2010,06,28,12,10,15.30
2010,06,28,12,11,15.30
2010,06,28,12,12,15.20
2010,06,28,12,13,15.20
2010,06,28,12,14,15.20
2010,06,28,12,15,15.20
2010,06,28,12,16,15.20
2010,06,28,12,17,15.10
2010,06,28,12,18,15.00
2010,06,28,12,19,15.00
2010,06,28,12,20,15.00
2010,06,28,12,21,14.90
2010,06,28,12,22,14.80
2010,06,28,12,23,14.70
2010,06,28,12,24,14.50
2010,06,28,12,25,14.40
2010,06,28,12,26,14.40
2010,06,28,12,27,14.30
2010,06,28,12,28,14.30
2010,06,28,12,29,14.30
2010,06,28,12,30,14.30
2010,06,28,12,31,14.40
2010,06,28,12,32,14.40
2010,06,28,12,33,14.40
2010,06,28,12,34,14.50
2010,06,28,12,35,14.50
2010,06,28,12,36,14.50
2010,06,28,12,37,14.50
2010,06,28,12,38,14.50
2010,06,28,12,39,14.50
2010,06,28,12,40,14.50
2010,06,28,12,41,14.50
2010,06,28,12,42,14.50
2010,06,28,12,43,14.60
2010,06,28,12,44,14.70
2010,06,28,12,45,14.90
2010,06,28,12,46,15.00
2010,06,28,12,47,15.00
2010,06,28,12,48,15.00
2010,06,28,12,49,15.00
2010,06,28,12,50,15.00
2010,06,28,12,51,15.00
2010,06,28,12,52,15.00
2010,06,28,12,53,15.00
2010,06,28,12,54,15.00
2010,06,28,12,55,15.00
2010,06,28,12,56,15.00
2010,06,28,12,57,15.00
2010,06,28,12,58,14.90
2010,06,28,12,59,14.90
2010,06,28,13,00,14.90
2010,06,28,13,01,14.90
2010,06,28,13,02,14.80
2010,06,28,13,03,14.70
2010,06,28,13,04,14.70
2010,06,28,13,05,14.60
2010,06,28,13,06,14.60
2010,06,28,13,07,14.60
2010,06,28,13,08,14.60
2010,06,28,13,09,14.60
2010,06,28,13,10,14.60
2010,06,28,13,11,14.70
2010,06,28,13,12,14.70
2010,06,28,13,13,14.80
2010,06,28,13,14,14.90
2010,06,28,13,15,15.00
2010,06,28,13,16,15.00
2010,06,28,13,17,15.00
2010,06,28,13,18,15.20
2010,06,28,13,19,15.20
2010,06,28,13,20,15.20
2010,06,28,13,21,15.10
2010,06,28,13,22,15.00
2010,06,28,13,23,15.00
2010,06,28,13,24,15.00
2010,06,28,13,25,15.00
2010,06,28,13,26,15.10
2010,06,28,13,27,15.20
2010,06,28,13,28,15.10
2010,06,28,13,29,15.00
2010,06,28,13,30,15.00
2010,06,28,13,31,14.90
2010,06,28,13,32,14.80
2010,06,28,13,33,14.70
2010,06,28,13,34,14.70
2010,06,28,13,35,14.70
2010,06,28,13,36,14.70
2010,06,28,13,37,14.70
2010,06,28,13,38,14.70
2010,06,28,13,39,14.70
2010,06,28,13,40,14.70
2010,06,28,13,41,14.80
2010,06,28,13,42,14.80
2010,06,28,13,43,14.80
2010,06,28,13,44,14.70
2010,06,28,13,45,14.70
2010,06,28,13,46,14.70
2010,06,28,13,47,14.70
2010,06,28,13,48,14.70
2010,06,28,13,49,14.70
2010,06,28,13,50,14.70
2010,06,28,13,51,14.70
2010,06,28,13,52,14.80
2010,06,28,13,53,14.80
2010,06,28,13,54,14.80
2010,06,28,13,55,14.80
2010,06,28,13,56,14.70
2010,06,28,13,57,14.70
2010,06,28,13,58,14.70
2010,06,28,13,59,14.80
2010,06,28,14,00,14.80
2010,06,28,14,01,14.80
2010,06,28,14,02,14.80
2010,06,28,14,03,14.80
2010,06,28,14,04,14.90
2010,06,28,14,05,15.00
2010,06,28,14,06,15.00
2010,06,28,14,07,15.00
2010,06,28,14,08,15.00
2010,06,28,14,09,15.00
2010,06,28,14,10,15.00
2010,06,28,14,11,15.00
2010,06,28,14,12,15.00
2010,06,28,14,13,15.00
2010,06,28,14,14,15.00
2010,06,28,14,15,15.00
2010,06,28,14,16,15.00
2010,06,28,14,17,15.00
2010,06,28,14,18,15.00
2010,06,28,14,19,15.00
2010,06,28,14,20,14.90
2010,06,28,14,21,14.90
2010,06,28,14,22,14.90
2010,06,28,14,23,14.80
2010,06,28,14,24,14.80
2010,06,28,14,25,14.80
2010,06,28,14,26,14.80
2010,06,28,14,27,14.80
2010,06,28,14,28,14.80
2010,06,28,14,29,14.70
2010,06,28,14,30,14.70
2010,06,28,14,31,14.70
2010,06,28,14,32,14.70
2010,06,28,14,33,14.70
2010,06,28,14,34,14.70
2010,06,28,14,35,14.70
2010,06,28,14,36,14.80
2010,06,28,14,37,14.90
2010,06,28,14,38,15.00
2010,06,28,14,39,15.00
2010,06,28,14,40,15.00
2010,06,28,14,41,15.00
2010,06,28,14,42,15.00
2010,06,28,14,43,15.00
2010,06,28,14,44,15.00
2010,06,28,14,45,15.10
2010,06,28,14,46,15.20
2010,06,28,14,47,15.20
2010,06,28,14,48,15.30
2010,06,28,14,49,15.30
2010,06,28,14,50,15.30
2010,06,28,14,51,15.30
2010,06,28,14,52,15.30
2010,06,28,14,53,15.40
2010,06,28,14,54,15.40
2010,06,28,14,55,15.30
2010,06,28,14,56,15.20
2010,06,28,14,57,15.20
2010,06,28,14,58,15.20
2010,06,28,14,59,15.20
2010,06,28,15,00,15.10
2010,06,28,15,01,15.00
2010,06,28,15,02,15.00
2010,06,28,15,03,15.00
2010,06,28,15,04,15.00
2010,06,28,15,05,15.00
2010,06,28,15,06,15.00
2010,06,28,15,07,15.10
2010,06,28,15,08,15.20
2010,06,28,15,09,15.30
2010,06,28,15,10,15.40
2010,06,28,15,11,15.50
2010,06,28,15,12,15.60
2010,06,28,15,13,15.70
2010,06,28,15,14,15.80
2010,06,28,15,15,15.90
2010,06,28,15,16,15.90
2010,06,28,15,17,16.00
2010,06,28,15,18,16.10
2010,06,28,15,19,16.30
2010,06,28,15,20,16.40
2010,06,28,15,21,16.50
2010,06,28,15,22,16.50
2010,06,28,15,23,16.60
2010,06,28,15,24,16.60
2010,06,28,15,25,16.60
2010,06,28,15,26,16.60
2010,06,28,15,27,16.70
2010,06,28,15,28,16.70
2010,06,28,15,29,16.70
2010,06,28,15,30,16.80
2010,06,28,15,31,16.90
2010,06,28,15,32,17.00
2010,06,28,15,33,17.10
2010,06,28,15,34,17.10
2010,06,28,15,35,17.10
2010,06,28,15,36,17.20
2010,06,28,15,37,17.10
2010,06,28,15,38,17.10
2010,06,28,15,39,17.00
2010,06,28,15,40,16.80
2010,06,28,15,41,16.80
2010,06,28,15,42,16.60
2010,06,28,15,43,16.50
2010,06,28,15,44,16.40
2010,06,28,15,45,16.40
2010,06,28,15,46,16.30
2010,06,28,15,47,16.40
2010,06,28,15,48,16.40
2010,06,28,15,49,16.50
2010,06,28,15,50,16.60
2010,06,28,15,51,16.70
2010,06,28,15,52,16.80
2010,06,28,15,53,16.90
2010,06,28,15,54,16.90
2010,06,28,15,55,17.00
2010,06,28,15,56,17.10
2010,06,28,15,57,17.20
2010,06,28,15,58,17.20
2010,06,28,15,59,17.30
2010,06,28,16,00,17.30
2010,06,28,16,01,17.30
2010,06,28,16,02,17.20
2010,06,28,16,03,17.20
2010,06,28,16,04,17.10
2010,06,28,16,05,17.10
2010,06,28,16,06,17.00
2010,06,28,16,07,17.00
2010,06,28,16,08,16.90
2010,06,28,16,09,16.90
2010,06,28,16,10,16.90
2010,06,28,16,11,16.80
2010,06,28,16,12,16.80
2010,06,28,16,13,16.70
2010,06,28,16,14,16.70
2010,06,28,16,15,16.70
2010,06,28,16,16,16.80
2010,06,28,16,17,16.80
2010,06,28,16,18,16.90
2010,06,28,16,19,17.00
2010,06,28,16,20,17.20
2010,06,28,16,21,17.30
2010,06,28,16,22,17.30
2010,06,28,16,23,17.30
2010,06,28,16,24,17.40
2010,06,28,16,25,17.50
2010,06,28,16,26,17.50
2010,06,28,16,27,17.40
2010,06,28,16,28,17.30
2010,06,28,16,29,17.20
2010,06,28,16,30,17.10
2010,06,28,16,31,17.10
2010,06,28,16,32,17.10
2010,06,28,16,33,17.10
2010,06,28,16,34,17.10
2010,06,28,16,35,17.10
2010,06,28,16,36,17.10
2010,06,28,16,37,17.10
2010,06,28,16,38,17.20
2010,06,28,16,39,17.20
2010,06,28,16,40,17.30
2010,06,28,16,41,17.30
2010,06,28,16,42,17.40
2010,06,28,16,43,17.40
2010,06,28,16,44,17.50
2010,06,28,16,45,17.50
2010,06,28,16,46,17.60
2010,06,28,16,47,17.60
2010,06,28,16,48,17.60
2010,06,28,16,49,17.50
2010,06,28,16,50,17.50
2010,06,28,16,51,17.50
2010,06,28,16,52,17.50
2010,06,28,16,53,17.50
2010,06,28,16,54,17.50
2010,06,28,16,55,17.40
2010,06,28,16,56,17.40
2010,06,28,16,57,17.30
2010,06,28,16,58,17.30
2010,06,28,16,59,17.30
2010,06,28,17,00,17.30
2010,06,28,17,01,17.30
2010,06,28,17,02,17.40
2010,06,28,17,03,17.50
2010,06,28,17,04,17.50
2010,06,28,17,05,17.50
2010,06,28,17,06,17.50
2010,06,28,17,07,17.60
2010,06,28,17,08,17.60
2010,06,28,17,09,17.70
2010,06,28,17,10,17.70
2010,06,28,17,11,17.80
2010,06,28,17,12,17.80
2010,06,28,17,13,17.80
2010,06,28,17,14,17.80
2010,06,28,17,15,17.70
2010,06,28,17,16,17.70
2010,06,28,17,17,17.70
2010,06,28,17,18,17.70
2010,06,28,17,19,17.70
2010,06,28,17,20,17.60
2010,06,28,17,21,17.60
2010,06,28,17,22,17.60
2010,06,28,17,23,17.50
2010,06,28,17,24,17.50
2010,06,28,17,25,17.60
2010,06,28,17,26,17.60
2010,06,28,17,27,17.70
2010,06,28,17,28,17.70
2010,06,28,17,29,17.70
2010,06,28,17,30,17.80
2010,06,28,17,31,17.80